DAL12 KORD-KSFO

Flight info

Callsign DAL12
Flight time 2h 58m
Altitude 32000
Route OLINN OREOS OBENE OGALE LNK J60 HCT VOAXA/N0453F340 Q136 RUMPS OAL INYOE DYAMD5
Aircraft A321/M-SDE3FGHIRWY/LB1

Departure

Time 2026-05-07 22:34
Airport Chicago O'Hare International Airport (KORD)

Arrival

Time 2026-05-08 01:33
Airport San Francisco International Airport (KSFO)
Time Latitude Longitude Altitude Speed Heading
2026-05-07 22:14 41.97625 -87.91069 668 ft 0 kts
2026-05-07 22:24 41.97620 -87.91070 669 ft 3 kts
2026-05-07 22:25 41.97594 -87.91072 668 ft 4 kts 348°
2026-05-07 22:25 41.97577 -87.91062 669 ft 4 kts 268°
2026-05-07 22:25 41.97577 -87.91055 669 ft 0 kts 249°
2026-05-07 22:27 41.97575 -87.91061 670 ft 3 kts 249°
2026-05-07 22:27 41.97574 -87.91066 670 ft 0 kts 249°
2026-05-07 22:28 41.97559 -87.91107 669 ft 10 kts 241°
2026-05-07 22:28 41.97508 -87.91179 670 ft 11 kts 196°
2026-05-07 22:28 41.97443 -87.91132 670 ft 11 kts 147°
2026-05-07 22:28 41.97380 -87.91158 670 ft 10 kts 223°
2026-05-07 22:29 41.97317 -87.91256 670 ft 20 kts 226°
2026-05-07 22:29 41.97249 -87.91417 670 ft 19 kts 264°
2026-05-07 22:29 41.97247 -87.91611 670 ft 23 kts 270°
2026-05-07 22:29 41.97241 -87.91823 670 ft 22 kts 265°
2026-05-07 22:30 41.97246 -87.92027 670 ft 21 kts 271°
2026-05-07 22:30 41.97241 -87.92224 670 ft 21 kts 265°
2026-05-07 22:30 41.97243 -87.92419 670 ft 21 kts 269°
2026-05-07 22:30 41.97238 -87.92620 670 ft 23 kts 271°
2026-05-07 22:31 41.97245 -87.92798 670 ft 20 kts 272°
2026-05-07 22:31 41.97244 -87.92996 671 ft 23 kts 270°
2026-05-07 22:31 41.97203 -87.93131 671 ft 16 kts 186°
2026-05-07 22:31 41.97082 -87.93136 672 ft 18 kts 179°
2026-05-07 22:32 41.96987 -87.93135 675 ft 10 kts 180°
2026-05-07 22:32 41.96926 -87.93135 678 ft 9 kts 178°
2026-05-07 22:32 41.96900 -87.93065 677 ft 8 kts 89°
2026-05-07 22:32 41.96900 -87.93063 677 ft 0 kts 89°
2026-05-07 22:33 41.96900 -87.93058 677 ft 2 kts 89°
2026-05-07 22:33 41.96900 -87.93048 677 ft 0 kts 89°
2026-05-07 22:33 41.96900 -87.93045 677 ft 6 kts 89°
2026-05-07 22:33 41.96900 -87.92640 673 ft 79 kts 90°
2026-05-07 22:34 41.96902 -87.91625 675 ft 135 kts 90°
2026-05-07 22:34 41.96905 -87.90147 672 ft 179 kts 90°
2026-05-07 22:34 41.96893 -87.88394 1049 ft 191 kts 91°
2026-05-07 22:34 41.96873 -87.86614 1764 ft 191 kts 91°
2026-05-07 22:35 41.96781 -87.84860 2386 ft 192 kts 98°
2026-05-07 22:35 41.96219 -87.83189 2551 ft 207 kts 134°
2026-05-07 22:35 41.95048 -87.81996 2678 ft 219 kts 165°
2026-05-07 22:35 41.93518 -87.81761 2822 ft 228 kts 195°
2026-05-07 22:36 41.92041 -87.82641 2975 ft 242 kts 226°
2026-05-07 22:36 41.91121 -87.84510 3407 ft 245 kts 257°
2026-05-07 22:36 41.90977 -87.86762 4083 ft 244 kts 271°
2026-05-07 22:36 41.90989 -87.89046 4797 ft 245 kts 271°
2026-05-07 22:37 41.91007 -87.91344 5467 ft 247 kts 271°
2026-05-07 22:37 41.91026 -87.93622 6142 ft 248 kts 271°
2026-05-07 22:37 41.91046 -87.95946 6797 ft 250 kts 271°
2026-05-07 22:37 41.91066 -87.98280 7465 ft 250 kts 271°
2026-05-07 22:38 41.91086 -88.00616 8121 ft 251 kts 272°
2026-05-07 22:38 41.91102 -88.02962 8751 ft 252 kts 272°
2026-05-07 22:38 41.91115 -88.05320 9414 ft 253 kts 272°
2026-05-07 22:38 41.91128 -88.07681 10051 ft 253 kts 272°
2026-05-07 22:39 41.91145 -88.10114 10262 ft 270 kts 272°
2026-05-07 22:39 41.91163 -88.12715 10377 ft 288 kts 272°
2026-05-07 22:39 41.91180 -88.15442 10503 ft 305 kts 272°
2026-05-07 22:39 41.91195 -88.18343 10799 ft 315 kts 272°
2026-05-07 22:40 41.91206 -88.21301 11351 ft 318 kts 271°
2026-05-07 22:40 41.91216 -88.24290 11948 ft 320 kts 272°
2026-05-07 22:40 41.91227 -88.27294 12556 ft 323 kts 271°
2026-05-07 22:40 41.91239 -88.30322 13200 ft 325 kts 271°
2026-05-07 22:41 41.91251 -88.33365 13804 ft 328 kts 271°
2026-05-07 22:41 41.91261 -88.36435 14346 ft 330 kts 271°
2026-05-07 22:41 41.91271 -88.39521 14859 ft 332 kts 271°
2026-05-07 22:41 41.91280 -88.42585 15367 ft 334 kts 271°
2026-05-07 22:42 41.91289 -88.45715 15882 ft 337 kts 271°
2026-05-07 22:42 41.91299 -88.48870 16381 ft 339 kts 272°
2026-05-07 22:42 41.91309 -88.52048 16891 ft 342 kts 272°
2026-05-07 22:42 41.91316 -88.55248 17396 ft 344 kts 272°
2026-05-07 22:43 41.91321 -88.58469 17884 ft 346 kts 272°
2026-05-07 22:43 41.91326 -88.61712 18345 ft 349 kts 272°
2026-05-07 22:43 41.91330 -88.64976 18779 ft 350 kts 272°
2026-05-07 22:43 41.91335 -88.68251 19229 ft 351 kts 272°
2026-05-07 22:44 41.91337 -88.71495 19672 ft 352 kts 272°
2026-05-07 22:44 41.91333 -88.74788 20121 ft 354 kts 272°
2026-05-07 22:44 41.91329 -88.78096 20557 ft 355 kts 272°
2026-05-07 22:44 41.91326 -88.81411 20988 ft 356 kts 272°
2026-05-07 22:45 41.91277 -88.84739 21406 ft 358 kts 271°
2026-05-07 22:45 41.91181 -88.88080 21814 ft 359 kts 271°
2026-05-07 22:45 41.91059 -88.91433 22236 ft 360 kts 270°
2026-05-07 22:45 41.90930 -88.94756 22640 ft 362 kts 270°
2026-05-07 22:46 41.90799 -88.98131 23043 ft 363 kts 271°
2026-05-07 22:46 41.90675 -89.01519 23450 ft 364 kts 271°
2026-05-07 22:46 41.90556 -89.04922 23783 ft 365 kts 271°
2026-05-07 22:46 41.90442 -89.08333 24106 ft 366 kts 271°
2026-05-07 22:47 41.90327 -89.11759 24428 ft 367 kts 271°
2026-05-07 22:47 41.90215 -89.15188 24746 ft 368 kts 271°
2026-05-07 22:47 41.90103 -89.18627 25063 ft 369 kts 271°
2026-05-07 22:47 41.89963 -89.22075 25376 ft 371 kts 270°
2026-05-07 22:48 41.89712 -89.25483 25650 ft 373 kts 268°
2026-05-07 22:48 41.89377 -89.28941 25969 ft 375 kts 267°
2026-05-07 22:48 41.89004 -89.32405 26274 ft 376 kts 267°
2026-05-07 22:48 41.88623 -89.35879 26574 ft 377 kts 267°
2026-05-07 22:49 41.88250 -89.39371 26854 ft 378 kts 267°
2026-05-07 22:49 41.87890 -89.42868 27130 ft 379 kts 268°
2026-05-07 22:49 41.87541 -89.46374 27400 ft 380 kts 268°
2026-05-07 22:49 41.87198 -89.49891 27662 ft 381 kts 268°
2026-05-07 22:50 41.86861 -89.53376 27913 ft 382 kts 268°
2026-05-07 22:50 41.86517 -89.56916 28167 ft 384 kts 268°
2026-05-07 22:50 41.86168 -89.60469 28428 ft 385 kts 268°
2026-05-07 22:50 41.85815 -89.64026 28754 ft 384 kts 268°
2026-05-07 22:51 41.85458 -89.67576 29137 ft 383 kts 268°
2026-05-07 22:51 41.85102 -89.71104 29504 ft 381 kts 268°
2026-05-07 22:51 41.84746 -89.74621 29853 ft 380 kts 268°
2026-05-07 22:51 41.84387 -89.78124 30147 ft 379 kts 268°
2026-05-07 22:52 41.84029 -89.81614 30438 ft 377 kts 268°
2026-05-07 22:52 41.83675 -89.85050 30725 ft 376 kts 268°
2026-05-07 22:52 41.83316 -89.88516 31014 ft 375 kts 267°
2026-05-07 22:52 41.82956 -89.91970 31300 ft 374 kts 267°
2026-05-07 22:53 41.82597 -89.95414 31592 ft 373 kts 267°
2026-05-07 22:53 41.82241 -89.98848 31851 ft 372 kts 267°
2026-05-07 22:53 41.81884 -90.02288 31887 ft 372 kts 267°
2026-05-07 22:54 41.81173 -90.09116 31914 ft 369 kts 267°
2026-05-07 22:54 41.80455 -90.15877 31913 ft 369 kts 267°
2026-05-07 22:55 41.79730 -90.22674 31910 ft 369 kts 267°
2026-05-07 22:55 41.79004 -90.29476 31920 ft 369 kts 267°
2026-05-07 22:56 41.78273 -90.36273 31921 ft 369 kts 267°
2026-05-07 22:56 41.77540 -90.43029 31885 ft 369 kts 267°
2026-05-07 22:57 41.76804 -90.49862 31909 ft 373 kts 266°
2026-05-07 22:57 41.76053 -90.56729 31914 ft 373 kts 266°
2026-05-07 22:58 41.75292 -90.63594 31915 ft 372 kts 266°
2026-05-07 22:58 41.74542 -90.70402 31916 ft 372 kts 266°
2026-05-07 22:59 41.73786 -90.77246 31889 ft 371 kts 266°
2026-05-07 22:59 41.73018 -90.84100 31890 ft 372 kts 266°
2026-05-07 23:00 41.72242 -90.90959 31892 ft 373 kts 266°
2026-05-07 23:00 41.71472 -90.97782 31906 ft 374 kts 266°
2026-05-07 23:01 41.70695 -91.04657 31908 ft 374 kts 266°
2026-05-07 23:01 41.69915 -91.11535 31913 ft 374 kts 266°
2026-05-07 23:02 41.69125 -91.18411 31885 ft 375 kts 266°
2026-05-07 23:02 41.68334 -91.25264 31898 ft 376 kts 266°
2026-05-07 23:03 41.67528 -91.32177 31902 ft 376 kts 266°
2026-05-07 23:03 41.66715 -91.39096 31907 ft 377 kts 266°
2026-05-07 23:04 41.65900 -91.46023 31915 ft 377 kts 266°
2026-05-07 23:04 41.65090 -91.52947 31891 ft 377 kts 266°
2026-05-07 23:05 41.64269 -91.59885 31895 ft 378 kts 266°
2026-05-07 23:05 41.63444 -91.66791 31895 ft 380 kts 265°
2026-05-07 23:06 41.62604 -91.73766 31899 ft 380 kts 266°
2026-05-07 23:06 41.61764 -91.80742 31911 ft 381 kts 265°
2026-05-07 23:07 41.60918 -91.87729 31907 ft 381 kts 265°
2026-05-07 23:07 41.60075 -91.94664 31878 ft 381 kts 265°
2026-05-07 23:08 41.59214 -92.01669 31880 ft 383 kts 265°
2026-05-07 23:08 41.58345 -92.08683 31888 ft 383 kts 265°
2026-05-07 23:09 41.57483 -92.15664 31890 ft 384 kts 265°
2026-05-07 23:09 41.56608 -92.22692 31894 ft 384 kts 265°
2026-05-07 23:10 41.55728 -92.29723 31870 ft 384 kts 265°
2026-05-07 23:10 41.54843 -92.36769 31877 ft 385 kts 265°
2026-05-07 23:11 41.53954 -92.43831 31880 ft 386 kts 265°
2026-05-07 23:11 41.53064 -92.50872 31886 ft 389 kts 264°
2026-05-07 23:12 41.52151 -92.57992 31896 ft 390 kts 264°
2026-05-07 23:12 41.51242 -92.65119 31904 ft 389 kts 264°
2026-05-07 23:13 41.50327 -92.72237 31879 ft 390 kts 264°
2026-05-07 23:13 41.49412 -92.79319 31885 ft 391 kts 264°
2026-05-07 23:14 41.48480 -92.86471 31883 ft 391 kts 264°
2026-05-07 23:14 41.47544 -92.93623 31884 ft 392 kts 264°
2026-05-07 23:15 41.46603 -93.00779 31879 ft 392 kts 264°
2026-05-07 23:15 41.45660 -93.07891 31876 ft 392 kts 263°
2026-05-07 23:16 41.44704 -93.15058 31863 ft 393 kts 263°
2026-05-07 23:16 41.43747 -93.22243 31870 ft 394 kts 263°
2026-05-07 23:17 41.42783 -93.29429 31876 ft 394 kts 263°
2026-05-07 23:17 41.41820 -93.36574 31871 ft 394 kts 263°
2026-05-07 23:18 41.40842 -93.43763 31872 ft 395 kts 263°
2026-05-07 23:18 41.39865 -93.50958 31879 ft 395 kts 263°
2026-05-07 23:19 41.38912 -93.58150 31873 ft 394 kts 264°
2026-05-07 23:19 41.37976 -93.65299 31875 ft 395 kts 264°
2026-05-07 23:20 41.37022 -93.72492 31882 ft 395 kts 263°
2026-05-07 23:20 41.36051 -93.79687 31875 ft 395 kts 263°
2026-05-07 23:21 41.35075 -93.86879 31855 ft 396 kts 263°
2026-05-07 23:21 41.34103 -93.94045 31856 ft 397 kts 263°
2026-05-07 23:22 41.33120 -94.01268 31858 ft 397 kts 263°
2026-05-07 23:22 41.32134 -94.08500 31859 ft 398 kts 263°
2026-05-07 23:23 41.31140 -94.15741 31860 ft 398 kts 263°
2026-05-07 23:23 41.30140 -94.22931 31849 ft 398 kts 263°
2026-05-07 23:24 41.29127 -94.30184 31854 ft 399 kts 263°
2026-05-07 23:24 41.28118 -94.37439 31856 ft 399 kts 263°
2026-05-07 23:25 41.27098 -94.44705 31856 ft 400 kts 263°
2026-05-07 23:25 41.26076 -94.51966 31859 ft 400 kts 263°
2026-05-07 23:26 41.25058 -94.59180 31846 ft 399 kts 262°
2026-05-07 23:26 41.24030 -94.66425 31865 ft 399 kts 262°
2026-05-07 23:27 41.22477 -94.77264 31867 ft 398 kts 262°
2026-05-07 23:27 41.21443 -94.84433 31865 ft 398 kts 262°
2026-05-07 23:28 41.20398 -94.91638 31861 ft 397 kts 262°
2026-05-07 23:28 41.19353 -94.98840 31848 ft 397 kts 262°
2026-05-07 23:29 41.18306 -95.06027 31853 ft 396 kts 262°
2026-05-07 23:29 41.17261 -95.13161 31857 ft 396 kts 262°
2026-05-07 23:30 41.16207 -95.20333 31854 ft 396 kts 262°
2026-05-07 23:30 41.15148 -95.27497 31853 ft 396 kts 262°
2026-05-07 23:31 41.14089 -95.34667 31840 ft 396 kts 262°
2026-05-07 23:31 41.13021 -95.41816 31856 ft 395 kts 262°
2026-05-07 23:32 41.11950 -95.48909 31860 ft 395 kts 262°
2026-05-07 23:32 41.10873 -95.56037 31865 ft 394 kts 262°
2026-05-07 23:33 41.09796 -95.63161 31868 ft 394 kts 262°
2026-05-07 23:33 41.08716 -95.70283 31859 ft 394 kts 262°
2026-05-07 23:34 41.07639 -95.77344 31852 ft 394 kts 262°
2026-05-07 23:34 41.06551 -95.84452 31858 ft 393 kts 262°
2026-05-07 23:35 41.05459 -95.91550 31860 ft 393 kts 262°
2026-05-07 23:35 41.03946 -96.01287 31861 ft 392 kts 262°
2026-05-07 23:36 41.01760 -96.15324 31865 ft 391 kts 262°
2026-05-07 23:36 41.00640 -96.22427 32106 ft 396 kts 262°
2026-05-07 23:36 40.99515 -96.29572 32585 ft 397 kts 262°
2026-05-07 23:37 40.98391 -96.36717 33107 ft 396 kts 262°
2026-05-07 23:37 40.97264 -96.43865 33597 ft 396 kts 261°
2026-05-07 23:37 40.96120 -96.51005 33884 ft 398 kts 261°
2026-05-07 23:37 40.94971 -96.58151 33876 ft 397 kts 261°
2026-05-07 23:38 40.92669 -96.72355 33876 ft 392 kts 261°
2026-05-07 23:38 40.91244 -96.86468 33869 ft 390 kts 265°
2026-05-07 23:39 40.89874 -97.00704 33881 ft 391 kts 265°
2026-05-07 23:39 40.88494 -97.14937 33877 ft 390 kts 265°
2026-05-07 23:40 40.87118 -97.29069 33873 ft 390 kts 265°
2026-05-07 23:40 40.85708 -97.43292 33877 ft 391 kts 265°
2026-05-07 23:41 40.84279 -97.57524 33878 ft 391 kts 265°
2026-05-07 23:41 40.82837 -97.71736 33870 ft 391 kts 265°
2026-05-07 23:42 40.81389 -97.85856 33873 ft 391 kts 265°
2026-05-07 23:42 40.79901 -98.00049 33862 ft 391 kts 265°
2026-05-07 23:43 40.78402 -98.14270 33871 ft 392 kts 265°
2026-05-07 23:43 40.76875 -98.28544 33877 ft 393 kts 265°
2026-05-07 23:44 40.75345 -98.42828 33851 ft 394 kts 265°
2026-05-07 23:44 40.73787 -98.57049 33862 ft 394 kts 264°
2026-05-07 23:45 40.72201 -98.71354 33869 ft 394 kts 264°
2026-05-07 23:45 40.70602 -98.85693 33866 ft 396 kts 264°
2026-05-07 23:46 40.68970 -99.00074 33878 ft 397 kts 264°
2026-05-07 23:46 40.67327 -99.14388 33863 ft 399 kts 264°
2026-05-07 23:47 40.65655 -99.28875 33851 ft 401 kts 264°
2026-05-07 23:47 40.63951 -99.43388 33853 ft 401 kts 264°
2026-05-07 23:48 40.62238 -99.57907 33842 ft 402 kts 264°
2026-05-07 23:48 40.60500 -99.72365 33851 ft 403 kts 264°
2026-05-07 23:49 40.58729 -99.86934 33832 ft 404 kts 264°
2026-05-07 23:49 40.56949 -100.01534 33851 ft 404 kts 264°
2026-05-07 23:50 40.55151 -100.16138 33860 ft 405 kts 264°
2026-05-07 23:50 40.53333 -100.30652 33843 ft 405 kts 265°
2026-05-07 23:51 40.51486 -100.45272 33858 ft 406 kts 265°
2026-05-07 23:51 40.49619 -100.59906 33840 ft 406 kts 265°
2026-05-07 23:52 40.47732 -100.74550 33867 ft 406 kts 265°
2026-05-07 23:52 40.45832 -100.89084 33871 ft 406 kts 265°
2026-05-07 23:53 40.44263 -101.03711 33874 ft 404 kts 269°
2026-05-07 23:53 40.42969 -101.18360 33879 ft 405 kts 268°
2026-05-07 23:54 40.41525 -101.33019 33859 ft 404 kts 268°
2026-05-07 23:54 40.40104 -101.47648 33886 ft 403 kts 268°
2026-05-07 23:55 40.38669 -101.62112 33890 ft 403 kts 268°
2026-05-07 23:55 40.37206 -101.76682 33893 ft 404 kts 268°
2026-05-07 23:56 40.35727 -101.91295 33897 ft 404 kts 268°
2026-05-07 23:56 40.34215 -102.05883 33856 ft 404 kts 268°
2026-05-07 23:57 40.32707 -102.20371 33882 ft 404 kts 268°
2026-05-07 23:57 40.31171 -102.34925 33882 ft 403 kts 268°
2026-05-07 23:58 40.29611 -102.49476 33869 ft 403 kts 268°
2026-05-07 23:58 40.28042 -102.64012 33881 ft 403 kts 268°
2026-05-07 23:59 40.26460 -102.78456 33856 ft 403 kts 268°
2026-05-07 23:59 40.24853 -102.92977 33886 ft 403 kts 268°
2026-05-08 00:00 40.23231 -103.07476 33892 ft 403 kts 268°
2026-05-08 00:00 40.21585 -103.21957 33966 ft 402 kts 268°
2026-05-08 00:01 40.19948 -103.36317 33971 ft 402 kts 268°
2026-05-08 00:01 40.18266 -103.50778 33915 ft 402 kts 267°
2026-05-08 00:02 40.16573 -103.65220 33923 ft 402 kts 267°
2026-05-08 00:02 40.14861 -103.79664 33941 ft 402 kts 267°
2026-05-08 00:03 40.13136 -103.94022 33896 ft 403 kts 267°
2026-05-08 00:03 40.11374 -104.08500 33866 ft 404 kts 267°
2026-05-08 00:04 40.09598 -104.23004 33854 ft 404 kts 267°
2026-05-08 00:04 40.07814 -104.37508 33891 ft 405 kts 267°
2026-05-08 00:05 40.05990 -104.52028 33954 ft 405 kts 266°
2026-05-08 00:05 40.04170 -104.66437 33968 ft 405 kts 267°
2026-05-08 00:06 40.02326 -104.80946 33969 ft 405 kts 266°
2026-05-08 00:06 40.00460 -104.95432 33937 ft 405 kts 266°
2026-05-08 00:07 39.98562 -105.09887 33969 ft 404 kts 266°
2026-05-08 00:07 39.96679 -105.24214 33990 ft 404 kts 266°
2026-05-08 00:08 39.94770 -105.38605 33966 ft 403 kts 265°
2026-05-08 00:08 39.92829 -105.53018 34003 ft 404 kts 265°
2026-05-08 00:09 39.90867 -105.67448 34034 ft 405 kts 266°
2026-05-08 00:09 39.88883 -105.82018 34101 ft 415 kts 265°
2026-05-08 00:10 39.86833 -105.96771 34102 ft 413 kts 265°
2026-05-08 00:10 39.84799 -106.11421 34092 ft 410 kts 266°
2026-05-08 00:11 39.82740 -106.25995 34082 ft 409 kts 265°
2026-05-08 00:11 39.80679 -106.40464 34047 ft 409 kts 265°
2026-05-08 00:12 39.78601 -106.55029 34052 ft 410 kts 266°
2026-05-08 00:12 39.77050 -106.69642 34050 ft 408 kts 268°
2026-05-08 00:13 39.75481 -106.84245 34030 ft 408 kts 268°
2026-05-08 00:13 39.73859 -106.98785 34120 ft 410 kts 268°
2026-05-08 00:14 39.72211 -107.13436 34079 ft 410 kts 268°
2026-05-08 00:14 39.70545 -107.28072 34059 ft 410 kts 268°
2026-05-08 00:15 39.68877 -107.42646 34019 ft 411 kts 268°
2026-05-08 00:15 39.67171 -107.57328 34043 ft 411 kts 268°
2026-05-08 00:16 39.65444 -107.72018 34058 ft 412 kts 268°
2026-05-08 00:16 39.63685 -107.86732 33985 ft 413 kts 268°
2026-05-08 00:17 39.61932 -108.01351 33995 ft 413 kts 267°
2026-05-08 00:17 39.60147 -108.16107 34030 ft 415 kts 268°
2026-05-08 00:18 39.58333 -108.30810 34000 ft 412 kts 267°
2026-05-08 00:18 39.56511 -108.45471 33960 ft 413 kts 267°
2026-05-08 00:19 39.54671 -108.60088 33978 ft 414 kts 267°
2026-05-08 00:19 39.52809 -108.74807 33991 ft 414 kts 267°
2026-05-08 00:20 39.50913 -108.89535 33964 ft 415 kts 266°
2026-05-08 00:20 39.49010 -109.04310 33986 ft 416 kts 266°
2026-05-08 00:21 39.47084 -109.18991 33948 ft 418 kts 266°
2026-05-08 00:21 39.45126 -109.33839 33972 ft 419 kts 266°
2026-05-08 00:22 39.43127 -109.48689 33971 ft 419 kts 266°
2026-05-08 00:22 39.41122 -109.63540 33990 ft 420 kts 266°
2026-05-08 00:23 39.39112 -109.78305 34007 ft 420 kts 266°
2026-05-08 00:23 39.37070 -109.93175 33989 ft 420 kts 266°
2026-05-08 00:24 39.35048 -110.08087 33984 ft 422 kts 266°
2026-05-08 00:24 39.33065 -110.23033 33953 ft 422 kts 266°
2026-05-08 00:25 39.31030 -110.38030 33985 ft 424 kts 266°
2026-05-08 00:25 39.28976 -110.52915 33978 ft 424 kts 266°
2026-05-08 00:26 39.26897 -110.67883 33991 ft 424 kts 265°
2026-05-08 00:26 39.24799 -110.82821 33962 ft 423 kts 265°
2026-05-08 00:27 39.22711 -110.97685 33985 ft 425 kts 265°
2026-05-08 00:27 39.20578 -111.12686 34026 ft 426 kts 265°
2026-05-08 00:28 39.18397 -111.27732 34037 ft 428 kts 264°
2026-05-08 00:28 39.16203 -111.42829 34044 ft 429 kts 265°
2026-05-08 00:29 39.13996 -111.57858 34027 ft 430 kts 265°
2026-05-08 00:29 39.11765 -111.72977 34039 ft 430 kts 264°
2026-05-08 00:30 39.09504 -111.88106 33998 ft 431 kts 264°
2026-05-08 00:30 39.07210 -112.03256 34014 ft 432 kts 264°
2026-05-08 00:31 39.04902 -112.18436 34017 ft 432 kts 264°
2026-05-08 00:31 39.02583 -112.33535 34051 ft 434 kts 263°
2026-05-08 00:32 39.00210 -112.48769 34038 ft 434 kts 263°
2026-05-08 00:32 38.99026 -112.56386 33921 ft 435 kts 263°
2026-05-08 00:32 38.97826 -112.64012 33913 ft 435 kts 263°
2026-05-08 00:33 38.95409 -112.79270 33900 ft 436 kts 263°
2026-05-08 00:33 38.93290 -112.92540 33901 ft 437 kts 263°
2026-05-08 00:34 38.92075 -113.00130 33901 ft 437 kts 263°
2026-05-08 00:34 38.90846 -113.07778 33905 ft 437 kts 263°
2026-05-08 00:35 38.89611 -113.15446 33898 ft 443 kts 263°
2026-05-08 00:35 38.88342 -113.23277 33904 ft 453 kts 262°
2026-05-08 00:36 38.87042 -113.31213 33906 ft 461 kts 262°
2026-05-08 00:36 38.85709 -113.39320 33909 ft 467 kts 262°
2026-05-08 00:37 38.84367 -113.47516 33912 ft 472 kts 262°
2026-05-08 00:38 38.82305 -113.59957 33914 ft 479 kts 262°
2026-05-08 00:38 38.81618 -113.64065 34102 ft 476 kts 262°
2026-05-08 00:38 38.80926 -113.68195 34420 ft 470 kts 262°
2026-05-08 00:38 38.80240 -113.72269 34733 ft 465 kts 262°
2026-05-08 00:39 38.79559 -113.76299 35024 ft 460 kts 262°
2026-05-08 00:39 38.78883 -113.80289 35339 ft 456 kts 262°
2026-05-08 00:39 38.78211 -113.84242 35666 ft 452 kts 262°
2026-05-08 00:39 38.77544 -113.88153 36019 ft 447 kts 262°
2026-05-08 00:40 38.76890 -113.91977 36371 ft 442 kts 262°
2026-05-08 00:40 38.76233 -113.95802 36745 ft 437 kts 262°
2026-05-08 00:40 38.75583 -113.99576 37130 ft 431 kts 262°
2026-05-08 00:40 38.74939 -114.03293 37531 ft 424 kts 261°
2026-05-08 00:41 38.74302 -114.06954 37917 ft 417 kts 261°
2026-05-08 00:41 38.73674 -114.10539 38308 ft 409 kts 261°
2026-05-08 00:41 38.73054 -114.14052 38670 ft 400 kts 261°
2026-05-08 00:41 38.72444 -114.17489 38967 ft 391 kts 261°
2026-05-08 00:42 38.71844 -114.20847 39255 ft 382 kts 261°
2026-05-08 00:42 38.71260 -114.24086 39462 ft 375 kts 261°
2026-05-08 00:42 38.70674 -114.27336 39396 ft 376 kts 261°
2026-05-08 00:42 38.70081 -114.30632 39091 ft 384 kts 261°
2026-05-08 00:43 38.69481 -114.33995 38856 ft 390 kts 261°
2026-05-08 00:43 38.68285 -114.40687 39153 ft 378 kts 261°
2026-05-08 00:44 38.67110 -114.47211 39065 ft 380 kts 261°
2026-05-08 00:44 38.66523 -114.50492 38818 ft 386 kts 261°
2026-05-08 00:44 38.65925 -114.53850 38751 ft 387 kts 261°
2026-05-08 00:44 38.65329 -114.57181 38896 ft 381 kts 261°
2026-05-08 00:45 38.64741 -114.60459 39047 ft 376 kts 261°
2026-05-08 00:45 38.63565 -114.67005 38800 ft 382 kts 261°
2026-05-08 00:45 38.62971 -114.70332 38657 ft 385 kts 261°
2026-05-08 00:46 38.62376 -114.73666 38699 ft 384 kts 261°
2026-05-08 00:46 38.61793 -114.76920 38850 ft 378 kts 261°
2026-05-08 00:46 38.61208 -114.80178 38921 ft 375 kts 261°
2026-05-08 00:46 38.60622 -114.83441 38810 ft 378 kts 261°
2026-05-08 00:47 38.60031 -114.86738 38630 ft 383 kts 261°
2026-05-08 00:47 38.58847 -114.93369 38651 ft 380 kts 261°
2026-05-08 00:47 38.58260 -114.96640 38773 ft 376 kts 261°
2026-05-08 00:48 38.57677 -114.99881 38805 ft 374 kts 261°
2026-05-08 00:48 38.56514 -115.06358 38551 ft 380 kts 261°
2026-05-08 00:49 38.55336 -115.12939 38572 ft 377 kts 261°
2026-05-08 00:49 38.54170 -115.19423 38630 ft 374 kts 261°
2026-05-08 00:49 38.53586 -115.22674 38501 ft 377 kts 261°
2026-05-08 00:50 38.53007 -115.25910 38393 ft 379 kts 261°
2026-05-08 00:50 38.51837 -115.32433 38513 ft 374 kts 261°
2026-05-08 00:51 38.50674 -115.38908 38414 ft 376 kts 261°
2026-05-08 00:51 38.49505 -115.45434 38328 ft 377 kts 261°
2026-05-08 00:51 38.48940 -115.48729 37949 ft 388 kts 262°
2026-05-08 00:52 38.48410 -115.52184 36747 ft 407 kts 263°
2026-05-08 00:52 38.47868 -115.55773 35489 ft 425 kts 262°
2026-05-08 00:52 38.47267 -115.59509 34594 ft 434 kts 261°
2026-05-08 00:52 38.46612 -115.63279 34056 ft 434 kts 261°
2026-05-08 00:53 38.45921 -115.67027 33868 ft 437 kts 260°
2026-05-08 00:53 38.44470 -115.74636 33903 ft 444 kts 259°
2026-05-08 00:54 38.43008 -115.82304 33901 ft 445 kts 259°
2026-05-08 00:54 38.41570 -115.89940 33902 ft 446 kts 260°
2026-05-08 00:55 38.40130 -115.97625 33895 ft 446 kts 259°
2026-05-08 00:55 38.38677 -116.05314 33903 ft 446 kts 259°
2026-05-08 00:56 38.37215 -116.13006 33904 ft 447 kts 259°
2026-05-08 00:56 38.35752 -116.20695 33919 ft 447 kts 259°
2026-05-08 00:57 38.34296 -116.28330 33925 ft 447 kts 259°
2026-05-08 00:57 38.32797 -116.36006 33931 ft 447 kts 258°
2026-05-08 00:58 38.31104 -116.43635 33946 ft 448 kts 256°
2026-05-08 00:58 38.29345 -116.51184 33958 ft 447 kts 256°
2026-05-08 00:59 38.27604 -116.58782 33954 ft 447 kts 257°
2026-05-08 00:59 38.25888 -116.66385 33963 ft 447 kts 257°
2026-05-08 01:00 38.24169 -116.73985 33983 ft 447 kts 257°
2026-05-08 01:00 38.22439 -116.81582 34020 ft 447 kts 256°
2026-05-08 01:01 38.20716 -116.89114 34049 ft 447 kts 256°
2026-05-08 01:01 38.18971 -116.96701 34078 ft 447 kts 256°
2026-05-08 01:02 38.17223 -117.04282 34104 ft 447 kts 256°
2026-05-08 01:02 38.15475 -117.11865 34115 ft 447 kts 256°
2026-05-08 01:03 38.13716 -117.19434 33954 ft 447 kts 256°
2026-05-08 01:03 38.11969 -117.26950 33946 ft 446 kts 256°
2026-05-08 01:04 38.10220 -117.34511 33952 ft 446 kts 256°
2026-05-08 01:04 38.08483 -117.42079 33943 ft 446 kts 256°
2026-05-08 01:05 38.06741 -117.49634 33927 ft 446 kts 256°
2026-05-08 01:05 38.04998 -117.57133 33929 ft 446 kts 255°
2026-05-08 01:06 38.03225 -117.64665 33914 ft 446 kts 255°
2026-05-08 01:06 38.01457 -117.72192 33910 ft 445 kts 255°
2026-05-08 01:07 38.00033 -117.79807 33908 ft 442 kts 264°
2026-05-08 01:07 37.98939 -117.90436 33914 ft 443 kts 264°
2026-05-08 01:08 37.97288 -118.05916 33910 ft 442 kts 264°
2026-05-08 01:08 37.95641 -118.21354 33920 ft 443 kts 264°
2026-05-08 01:09 37.93965 -118.36815 33933 ft 443 kts 264°
2026-05-08 01:09 37.92281 -118.52167 33950 ft 442 kts 264°
2026-05-08 01:10 37.90570 -118.67547 34015 ft 441 kts 263°
2026-05-08 01:10 37.88856 -118.82696 34074 ft 441 kts 264°
2026-05-08 01:11 37.87989 -118.90380 34092 ft 441 kts 263°
2026-05-08 01:11 37.87244 -118.96929 34081 ft 441 kts 263°
2026-05-08 01:12 37.85185 -119.14770 34062 ft 441 kts 263°
2026-05-08 01:12 37.83394 -119.30115 34092 ft 440 kts 263°
2026-05-08 01:13 37.81893 -119.42842 34108 ft 440 kts 263°
2026-05-08 01:13 37.80073 -119.58139 34097 ft 440 kts 262°
2026-05-08 01:14 37.77917 -119.75950 34075 ft 441 kts 262°
2026-05-08 01:14 37.76611 -119.86660 34035 ft 444 kts 262°
2026-05-08 01:14 37.76145 -119.90474 33758 ft 445 kts 262°
2026-05-08 01:15 37.75673 -119.94348 33465 ft 445 kts 262°
2026-05-08 01:15 37.75204 -119.98191 33024 ft 442 kts 262°
2026-05-08 01:15 37.74736 -120.02016 32488 ft 439 kts 262°
2026-05-08 01:15 37.73850 -120.09198 31451 ft 435 kts 261°
2026-05-08 01:16 37.72906 -120.16703 30407 ft 430 kts 261°
2026-05-08 01:16 37.71962 -120.24118 29052 ft 430 kts 262°
2026-05-08 01:16 37.71056 -120.31334 28327 ft 416 kts 262°
2026-05-08 01:16 37.70153 -120.38487 27339 ft 408 kts 261°
2026-05-08 01:17 37.69294 -120.45519 26367 ft 402 kts 262°
2026-05-08 01:17 37.68511 -120.52438 25456 ft 395 kts 262°
2026-05-08 01:17 37.67732 -120.59250 24577 ft 388 kts 262°
2026-05-08 01:17 37.66941 -120.65941 23699 ft 383 kts 261°
2026-05-08 01:18 37.66148 -120.72531 22762 ft 376 kts 262°
2026-05-08 01:18 37.65385 -120.78985 21891 ft 368 kts 262°
2026-05-08 01:18 37.64626 -120.85324 21029 ft 363 kts 262°
2026-05-08 01:18 37.63871 -120.91491 20160 ft 359 kts 262°
2026-05-08 01:19 37.63112 -120.97691 19280 ft 356 kts 262°
2026-05-08 01:19 37.62310 -121.03820 18404 ft 354 kts 261°
2026-05-08 01:19 37.61483 -121.09967 17392 ft 352 kts 261°
2026-05-08 01:19 37.60665 -121.16013 16549 ft 346 kts 261°
2026-05-08 01:20 37.59859 -121.21961 15720 ft 342 kts 261°
2026-05-08 01:20 37.59065 -121.27836 14919 ft 337 kts 261°
2026-05-08 01:20 37.58375 -121.33659 14097 ft 335 kts 262°
2026-05-08 01:20 37.57731 -121.39446 13224 ft 332 kts 262°
2026-05-08 01:21 37.57097 -121.45053 12502 ft 324 kts 262°
2026-05-08 01:21 37.56458 -121.50642 11659 ft 320 kts 262°
2026-05-08 01:21 37.55985 -121.54719 11158 ft 314 kts 262°
2026-05-08 01:21 37.55673 -121.57387 11036 ft 302 kts 262°
2026-05-08 01:22 37.55371 -121.59954 10865 ft 292 kts 262°
2026-05-08 01:22 37.55058 -121.62448 10784 ft 286 kts 257°
2026-05-08 01:22 37.54512 -121.64882 10403 ft 293 kts 253°
2026-05-08 01:22 37.53931 -121.67316 10159 ft 287 kts 253°
2026-05-08 01:23 37.53358 -121.69698 9561 ft 283 kts 253°
2026-05-08 01:23 37.52797 -121.72033 8906 ft 281 kts 253°
2026-05-08 01:23 37.52238 -121.74365 8377 ft 270 kts 253°
2026-05-08 01:23 37.51709 -121.76578 8167 ft 259 kts 253°
2026-05-08 01:24 37.51198 -121.78713 8067 ft 252 kts 253°
2026-05-08 01:24 37.50695 -121.80819 7936 ft 251 kts 253°
2026-05-08 01:24 37.50188 -121.82929 7676 ft 251 kts 253°
2026-05-08 01:24 37.49682 -121.85031 7365 ft 249 kts 253°
2026-05-08 01:25 37.49224 -121.87097 7056 ft 248 kts 260°
2026-05-08 01:25 37.49170 -121.89254 6743 ft 247 kts 274°
2026-05-08 01:25 37.49306 -121.91408 6420 ft 247 kts 273°
2026-05-08 01:25 37.49434 -121.93557 6090 ft 245 kts 273°
2026-05-08 01:26 37.49558 -121.95688 5774 ft 243 kts 273°
2026-05-08 01:26 37.49680 -121.97814 5464 ft 243 kts 273°
2026-05-08 01:26 37.49799 -121.99944 5154 ft 243 kts 273°
2026-05-08 01:26 37.49919 -122.02064 4843 ft 242 kts 273°
2026-05-08 01:27 37.50039 -122.04137 4530 ft 240 kts 274°
2026-05-08 01:27 37.50159 -122.06229 4221 ft 241 kts 274°
2026-05-08 01:27 37.50280 -122.08336 3911 ft 241 kts 276°
2026-05-08 01:27 37.50697 -122.10422 3605 ft 253 kts 295°
2026-05-08 01:28 37.51502 -122.12365 3356 ft 245 kts 298°
2026-05-08 01:28 37.52288 -122.14208 3201 ft 234 kts 297°
2026-05-08 01:28 37.53041 -122.15985 3086 ft 225 kts 298°
2026-05-08 01:28 37.53748 -122.17657 3015 ft 208 kts 297°
2026-05-08 01:29 37.54397 -122.19194 2878 ft 196 kts 298°
2026-05-08 01:29 37.54953 -122.20513 2693 ft 192 kts 298°
2026-05-08 01:29 37.55511 -122.21835 2492 ft 187 kts 297°
2026-05-08 01:29 37.56110 -122.23255 2255 ft 179 kts 298°
2026-05-08 01:30 37.56683 -122.24613 2008 ft 172 kts 297°
2026-05-08 01:30 37.57232 -122.25918 1783 ft 165 kts 297°
2026-05-08 01:30 37.57744 -122.27132 1577 ft 149 kts 297°
2026-05-08 01:30 37.58222 -122.28266 1365 ft 144 kts 296°
2026-05-08 01:31 37.58689 -122.29375 1191 ft 142 kts 296°
2026-05-08 01:31 37.59142 -122.30452 1005 ft 139 kts 296°
2026-05-08 01:31 37.59591 -122.31520 810 ft 140 kts 298°
2026-05-08 01:31 37.60036 -122.32594 665 ft 136 kts 297°
2026-05-08 01:32 37.60472 -122.33637 477 ft 133 kts 295°
2026-05-08 01:32 37.60914 -122.34652 272 ft 132 kts 294°
2026-05-08 01:32 37.61330 -122.35660 67 ft 128 kts 295°
2026-05-08 01:32 37.61730 -122.36614 19 ft 111 kts 296°
2026-05-08 01:33 37.61997 -122.37254 16 ft 55 kts 296°
2026-05-08 01:33 37.62125 -122.37561 18 ft 31 kts 296°
2026-05-08 01:33 37.62117 -122.37720 21 ft 16 kts 228°
2026-05-08 01:33 37.62042 -122.37825 23 ft 16 kts 228°
2026-05-08 01:34 37.61960 -122.37938 23 ft 20 kts 226°
2026-05-08 01:34 37.61924 -122.37991 24 ft 0 kts 231°
2026-05-08 01:34 37.61923 -122.37992 24 ft 1 kts 231°
2026-05-08 01:34 37.61911 -122.38045 22 ft 12 kts 269°
2026-05-08 01:35 37.61885 -122.38104 22 ft 7 kts 201°
2026-05-08 01:35 37.61860 -122.38118 21 ft 0 kts 201°
2026-05-08 01:35 37.61858 -122.38119 22 ft 0 kts 201°
2026-05-08 01:35 37.61862 -122.38117 21 ft 0 kts 201°